Total_Precipitation_Accumulation
0.74 0.77 0.76 0.71 0.66 0.62 0.58 0.53 0.46 0.38 0.32 0.29 0.26 0.23 0.20 0.18 0.16 0.15 0.15 0.15 0.16 0.15 0.14 0.13 0.13 0.12 0.11 0.10 0.10 0.10 0.10 0.14 0.17 0.10 0.07 0.07 0.09 0.11 0.11 0.13 0.13 0.14 0.14
0.54 0.50 0.51 0.46 0.42 0.39 0.36 0.32 0.28 0.25 0.21 0.18 0.16 0.15 0.15 0.15 0.14 0.13 0.13 0.12 0.12 0.11 0.10 0.09 0.09 0.08 0.10 0.10 0.09 0.09 0.10 0.13 0.16 0.15 0.11 0.10 0.11 0.14 0.16 0.17 0.11 0.09 0.13
0.43 0.37 0.36 0.35 0.33 0.30 0.25 0.21 0.19 0.18 0.18 0.16 0.14 0.12 0.11 0.11 0.10 0.09 0.09 0.10 0.09 0.08 0.08 0.08 0.07 0.07 0.09 0.09 0.11 0.12 0.13 0.13 0.19 0.23 0.19 0.16 0.13 0.12 0.17 0.15 0.15 0.23 0.15
0.36 0.34 0.29 0.26 0.25 0.23 0.21 0.19 0.16 0.14 0.13 0.11 0.10 0.09 0.09 0.08 0.07 0.06 0.06 0.06 0.07 0.06 0.05 0.05 0.05 0.06 0.08 0.11 0.12 0.14 0.18 0.21 0.24 0.27 0.22 0.17 0.16 0.14 0.23 0.23 0.21 0.25 0.21
0.35 0.36 0.32 0.26 0.22 0.20 0.19 0.19 0.17 0.14 0.10 0.08 0.05 0.04 0.03 0.03 0.02 0.02 0.02 0.03 0.04 0.04 0.03 0.03 0.03 0.03 0.06 0.10 0.12 0.17 0.23 0.28 0.28 0.30 0.27 0.23 0.20 0.22 0.26 0.27 0.29 0.26 0.21
0.40 0.41 0.38 0.32 0.26 0.21 0.17 0.14 0.11 0.08 0.05 0.03 0.02 0.02 0.01 0.01 0.00 0.00 0.00 0.02 0.03 0.05 0.06 0.05 0.04 0.03 0.04 0.07 0.10 0.15 0.22 0.27 0.29 0.32 0.31 0.31 0.28 0.32 0.37 0.39 0.42 0.40 0.33
0.39 0.34 0.31 0.27 0.23 0.18 0.13 0.10 0.08 0.07 0.06 0.04 0.03 0.02 0.03 0.01 0.00 0.00 0.00 0.02 0.06 0.09 0.10 0.10 0.07 0.05 0.08 0.11 0.10 0.10 0.14 0.14 0.23 0.34 0.40 0.40 0.42 0.47 0.55 0.54 0.51 0.50 0.46
0.30 0.26 0.21 0.17 0.14 0.11 0.09 0.08 0.09 0.09 0.08 0.07 0.05 0.05 0.05 0.02 0.00 0.00 0.00 0.03 0.08 0.09 0.09 0.11 0.14 0.15 0.11 0.08 0.08 0.13 0.19 0.23 0.26 0.33 0.46 0.49 0.48 0.50 0.57 0.59 0.58 0.55 0.51
0.24 0.21 0.15 0.11 0.10 0.10 0.09 0.08 0.09 0.10 0.10 0.08 0.07 0.08 0.09 0.06 0.01 0.00 0.00 0.03 0.07 0.07 0.07 0.07 0.08 0.12 0.09 0.09 0.11 0.21 0.27 0.32 0.27 0.36 0.47 0.52 0.53 0.56 0.57 0.58 0.65 0.70 0.64
0.18 0.14 0.11 0.09 0.10 0.10 0.10 0.10 0.10 0.11 0.11 0.09 0.09 0.10 0.12 0.10 0.02 0.00 0.01 0.03 0.07 0.08 0.11 0.13 0.09 0.08 0.10 0.10 0.10 0.20 0.29 0.32 0.42 0.62 0.75 0.75 0.71 0.69 0.63 0.64 0.73 0.75 0.74
0.12 0.11 0.09 0.08 0.08 0.08 0.10 0.12 0.11 0.11 0.11 0.10 0.11 0.13 0.12 0.06 0.02 0.01 0.01 0.03 0.06 0.09 0.14 0.19 0.18 0.12 0.10 0.09 0.10 0.18 0.27 0.29 0.49 0.83 0.87 0.76 0.67 0.63 0.61 0.60 0.64 0.70 0.76
0.12 0.12 0.11 0.09 0.05 0.06 0.12 0.14 0.11 0.12 0.13 0.13 0.14 0.16 0.14 0.09 0.03 0.01 0.01 0.02 0.03 0.09 0.19 0.20 0.18 0.15 0.12 0.12 0.14 0.22 0.29 0.41 0.65 0.89 0.87 0.73 0.60 0.52 0.49 0.46 0.51 0.59 0.67
0.12 0.14 0.12 0.08 0.06 0.05 0.08 0.11 0.10 0.11 0.10 0.08 0.10 0.13 0.13 0.12 0.07 0.02 0.01 0.02 0.04 0.09 0.17 0.20 0.20 0.18 0.20 0.30 0.32 0.36 0.47 0.64 0.77 0.83 0.78 0.65 0.54 0.48 0.44 0.43 0.42 0.50 0.57
0.18 0.16 0.12 0.10 0.08 0.06 0.05 0.04 0.04 0.05 0.06 0.06 0.09 0.11 0.12 0.12 0.08 0.05 0.05 0.06 0.07 0.10 0.18 0.28 0.36 0.38 0.43 0.53 0.60 0.65 0.67 0.69 0.69 0.69 0.63 0.56 0.50 0.47 0.44 0.40 0.40 0.43 0.52
0.21 0.16 0.13 0.11 0.08 0.08 0.06 0.03 0.02 0.02 0.01 0.03 0.05 0.06 0.09 0.10 0.06 0.06 0.07 0.07 0.09 0.12 0.17 0.30 0.46 0.54 0.60 0.64 0.66 0.67 0.65 0.60 0.58 0.55 0.52 0.48 0.47 0.46 0.43 0.37 0.37 0.39 0.45
0.16 0.13 0.10 0.08 0.07 0.05 0.07 0.07 0.02 0.01 0.01 0.01 0.02 0.03 0.03 0.05 0.05 0.05 0.07 0.09 0.11 0.15 0.20 0.36 0.47 0.53 0.58 0.59 0.59 0.57 0.53 0.49 0.46 0.44 0.43 0.39 0.37 0.38 0.40 0.37 0.35 0.38 0.43
0.08 0.06 0.04 0.04 0.05 0.04 0.06 0.13 0.16 0.09 0.02 0.01 0.01 0.02 0.03 0.04 0.04 0.04 0.05 0.07 0.10 0.17 0.25 0.39 0.48 0.51 0.56 0.58 0.53 0.49 0.47 0.43 0.37 0.33 0.34 0.32 0.28 0.29 0.33 0.36 0.35 0.36 0.36
0.03 0.03 0.03 0.04 0.03 0.03 0.04 0.07 0.13 0.20 0.19 0.13 0.05 0.02 0.03 0.04 0.05 0.05 0.06 0.09 0.15 0.21 0.32 0.42 0.47 0.49 0.52 0.53 0.48 0.44 0.42 0.35 0.30 0.27 0.27 0.28 0.27 0.26 0.28 0.31 0.30 0.27 0.29
0.02 0.03 0.03 0.02 0.02 0.02 0.03 0.03 0.05 0.10 0.17 0.18 0.15 0.08 0.06 0.08 0.10 0.11 0.12 0.15 0.19 0.24 0.29 0.35 0.40 0.43 0.45 0.44 0.41 0.36 0.33 0.30 0.26 0.24 0.24 0.25 0.26 0.25 0.24 0.22 0.20 0.16 0.21
0.02 0.01 0.01 0.02 0.02 0.02 0.02 0.02 0.04 0.08 0.11 0.13 0.13 0.09 0.10 0.16 0.21 0.20 0.17 0.15 0.15 0.18 0.23 0.28 0.32 0.33 0.33 0.33 0.30 0.26 0.25 0.24 0.22 0.22 0.22 0.23 0.23 0.21 0.18 0.16 0.16 0.17 0.18
0.02 0.02 0.01 0.01 0.01 0.01 0.01 0.02 0.03 0.06 0.08 0.10 0.08 0.06 0.11 0.18 0.23 0.23 0.21 0.18 0.17 0.18 0.20 0.22 0.24 0.24 0.22 0.20 0.20 0.19 0.18 0.18 0.19 0.22 0.23 0.21 0.18 0.15 0.11 0.10 0.09 0.09 0.10
0.01 0.01 0.01 0.01 0.01 0.00 0.00 0.01 0.01 0.03 0.06 0.07 0.07 0.06 0.11 0.15 0.20 0.20 0.20 0.19 0.18 0.19 0.20 0.20 0.20 0.19 0.18 0.17 0.17 0.16 0.14 0.15 0.16 0.20 0.21 0.19 0.15 0.10 0.07 0.06 0.05 0.04 0.04
0.01 0.00 0.00 0.00 0.00 0.00 0.00 0.01 0.01 0.02 0.04 0.05 0.05 0.06 0.08 0.12 0.14 0.18 0.20 0.18 0.15 0.15 0.14 0.15 0.16 0.16 0.15 0.14 0.14 0.12 0.10 0.11 0.13 0.16 0.22 0.20 0.14 0.08 0.06 0.05 0.04 0.04 0.03
0.00 0.00 0.00 0.00 0.00 0.00 0.00 0.01 0.01 0.01 0.02 0.03 0.03 0.05 0.07 0.08 0.10 0.15 0.18 0.17 0.16 0.15 0.14 0.13 0.14 0.14 0.14 0.13 0.11 0.08 0.05 0.06 0.08 0.11 0.17 0.16 0.10 0.06 0.06 0.06 0.05 0.04 0.03
0.00 0.00 0.00 0.00 0.00 0.00 0.00 0.00 0.00 0.00 0.01 0.01 0.02 0.03 0.05 0.05 0.05 0.08 0.12 0.14 0.15 0.17 0.16 0.12 0.10 0.10 0.09 0.07 0.05 0.04 0.05 0.05 0.05 0.06 0.11 0.12 0.07 0.05 0.05 0.04 0.04 0.04 0.04
0.00 0.00 0.00 0.00 0.00 0.00 0.00 0.00 0.00 0.00 0.00 0.00 0.00 0.01 0.01 0.02 0.02 0.03 0.05 0.07 0.10 0.13 0.13 0.12 0.10 0.07 0.05 0.02 0.02 0.03 0.04 0.03 0.02 0.03 0.07 0.11 0.08 0.05 0.06 0.05 0.03 0.04 0.05